timestamp,surface_pressure_avg,surface_temp_avg,battery_voltage,lat,long
2019-07-12 00:00:00+00:00,216.0298,11.05,12.97,47.84626,-54.09684
2019-07-12 00:10:00+00:00,213.9715,11.0,12.89,47.84626,-54.09684
2019-07-12 00:20:00+00:00,213.8315,11.07,12.97,47.84626,-54.09684
2019-07-12 00:30:00+00:00,213.6348,11.12,12.97,47.84626,-54.09684
2019-07-12 00:40:00+00:00,212.3615,11.2,12.97,47.84626,-54.09684
2019-07-12 00:50:00+00:00,208.9065,11.2,12.97,47.84626,-54.09684
2019-07-12 01:00:00+00:00,205.9631,11.2,12.89,47.84626,-54.09684
2019-07-12 01:10:00+00:00,205.7264,11.2,12.81,47.84626,-54.09684
2019-07-12 01:20:00+00:00,206.2231,11.2,12.89,47.84626,-54.09684
2019-07-12 01:30:00+00:00,205.9998,11.2,12.97,47.84626,-54.09684
2019-07-12 01:40:00+00:00,204.4249,11.2,12.97,47.84626,-54.09684
2019-07-12 01:50:00+00:00,203.6764,11.2,12.97,47.84626,-54.09684
2019-07-12 02:00:00+00:00,204.8297,11.17,12.89,47.84626,-54.09684
2019-07-12 02:10:00+00:00,206.5281,11.1,12.81,47.84626,-54.09684
2019-07-12 02:20:00+00:00,207.6548,11.1,12.89,47.84626,-54.09684
2019-07-12 02:30:00+00:00,206.4348,11.0,12.89,47.84626,-54.09684
2019-07-12 02:40:00+00:00,205.1014,11.0,12.97,47.84626,-54.09684
2019-07-12 02:50:00+00:00,207.4915,11.0,12.97,47.84626,-54.09684
2019-07-12 03:00:00+00:00,209.2581,11.0,12.89,47.84626,-54.09684
2019-07-12 03:10:00+00:00,208.2364,11.09,12.81,47.84626,-54.09684
2019-07-12 03:20:00+00:00,210.3015,11.1,12.89,47.84626,-54.09684
2019-07-12 03:30:00+00:00,213.7098,11.11,12.89,47.84626,-54.09684
2019-07-12 03:40:00+00:00,214.7731,11.1,12.89,47.84626,-54.09684
2019-07-12 03:50:00+00:00,216.4031,11.08,12.97,47.84626,-54.09684
2019-07-12 04:00:00+00:00,221.5598,10.9,12.81,47.84626,-54.09684
2019-07-12 04:10:00+00:00,226.6981,10.7,12.81,47.84626,-54.09684
2019-07-12 04:20:00+00:00,228.3648,10.5,12.89,47.84626,-54.09684
2019-07-12 04:30:00+00:00,231.7448,10.5,12.89,47.84626,-54.09684
2019-07-12 04:40:00+00:00,238.9114,10.5,12.89,47.84626,-54.09684
2019-07-12 04:50:00+00:00,247.6248,10.52,12.89,47.84626,-54.09684
2019-07-12 05:00:00+00:00,253.6898,10.56,12.81,47.84626,-54.09684
2019-07-12 05:10:00+00:00,262.5647,10.57,12.73,47.84626,-54.09684
2019-07-12 05:20:00+00:00,272.053,10.59,12.81,47.84626,-54.09684
2019-07-12 05:30:00+00:00,277.7597,10.74,12.81,47.84626,-54.09684
2019-07-12 05:40:00+00:00,282.5347,10.6,12.89,47.84626,-54.09684
2019-07-12 05:50:00+00:00,290.3597,10.6,12.89,47.84626,-54.09684
2019-07-12 06:00:00+00:00,294.9982,10.6,12.81,47.84626,-54.09684
2019-07-12 06:10:00+00:00,295.3981,10.5,12.73,47.84626,-54.09684
2019-07-12 06:20:00+00:00,299.3229,10.42,12.81,47.84626,-54.09684
2019-07-12 06:30:00+00:00,304.2196,10.47,12.81,47.84626,-54.09684
2019-07-12 06:40:00+00:00,306.4448,10.5,12.81,47.84626,-54.09684
2019-07-12 06:50:00+00:00,307.7114,10.5,12.81,47.84626,-54.09684
2019-07-12 07:00:00+00:00,310.3047,10.56,12.73,47.84626,-54.09684
2019-07-12 07:10:00+00:00,312.2531,10.59,12.73,47.84626,-54.09684
2019-07-12 07:20:00+00:00,312.9748,10.6,12.73,47.84626,-54.09684
2019-07-12 07:30:00+00:00,314.693,10.5,12.81,47.84626,-54.09684
2019-07-12 07:40:00+00:00,316.6229,10.39,12.81,47.84626,-54.09684
2019-07-12 07:50:00+00:00,317.833,10.5,12.81,47.84626,-54.09684
2019-07-12 08:00:00+00:00,318.1912,10.5,12.73,47.84626,-54.09684
2019-07-12 08:10:00+00:00,317.203,10.4,12.65,47.84626,-54.09684
2019-07-12 08:20:00+00:00,317.113,10.4,12.73,47.84626,-54.09684
2019-07-12 08:30:00+00:00,315.2213,10.2,12.73,47.84626,-54.09684
2019-07-12 08:40:00+00:00,314.933,10.0,12.81,47.84626,-54.09684
2019-07-12 08:50:00+00:00,314.4129,10.1,12.81,47.84626,-54.09684
2019-07-12 09:00:00+00:00,312.8196,10.2,12.73,47.84626,-54.09684
2019-07-12 09:10:00+00:00,311.3363,10.3,12.65,47.84626,-54.09684
2019-07-12 09:20:00+00:00,308.408,10.26,12.73,47.84626,-54.09684
2019-07-12 09:30:00+00:00,303.7147,10.49,12.81,47.84626,-54.09684
2019-07-12 09:40:00+00:00,298.0147,10.66,12.81,47.84626,-54.09684
2019-07-12 09:50:00+00:00,294.843,10.7,13.05,47.84626,-54.09684
2019-07-12 10:00:00+00:00,288.2414,10.76,13.21,47.84626,-54.09684
2019-07-12 10:10:00+00:00,278.2731,10.79,13.37,47.84626,-54.09684
2019-07-12 10:20:00+00:00,270.3997,10.8,13.53,47.84626,-54.09684
2019-07-12 10:30:00+00:00,265.5764,10.8,13.53,47.84626,-54.09684
2019-07-12 10:40:00+00:00,255.3481,10.8,13.6,47.84626,-54.09684
2019-07-12 10:50:00+00:00,246.8581,10.8,13.76,47.84626,-54.09684
2019-07-12 11:00:00+00:00,244.6048,10.8,13.84,47.84626,-54.09684
2019-07-12 11:10:00+00:00,242.0497,10.8,14.16,47.84626,-54.09684
2019-07-12 11:20:00+00:00,233.0514,10.8,14.48,47.84626,-54.09684
2019-07-12 11:30:00+00:00,226.2248,10.8,14.64,47.84626,-54.09684
2019-07-12 11:40:00+00:00,224.5815,10.8,15.91,47.84626,-54.09684
2019-07-12 11:50:00+00:00,220.0865,10.8,14.48,47.84626,-54.09684
2019-07-12 12:00:00+00:00,211.6264,10.8,15.2,47.84626,-54.09684
2019-07-12 12:10:00+00:00,208.2498,10.8,14.72,47.84626,-54.09684
2019-07-12 12:20:00+00:00,210.5815,10.76,15.83,47.84626,-54.09684
2019-07-12 12:30:00+00:00,208.6214,10.7,14.88,47.84626,-54.09684
2019-07-12 12:40:00+00:00,202.6531,10.7,14.8,47.84626,-54.09684
2019-07-12 12:50:00+00:00,202.9498,10.7,14.8,47.84626,-54.09684
2019-07-12 13:00:00+00:00,206.0531,10.69,14.64,47.84626,-54.09684
2019-07-12 13:10:00+00:00,202.6115,10.68,14.64,47.84626,-54.09684
2019-07-12 13:20:00+00:00,197.3731,10.68,14.64,47.84626,-54.09684
2019-07-12 13:30:00+00:00,198.5115,10.67,14.64,47.84626,-54.09684
2019-07-12 13:40:00+00:00,199.5331,10.68,14.48,47.84626,-54.09684
2019-07-12 13:50:00+00:00,194.5364,10.7,14.72,47.84626,-54.09684
2019-07-12 14:00:00+00:00,194.9698,10.7,14.56,47.84626,-54.09684
2019-07-12 14:10:00+00:00,199.9348,10.75,14.56,47.84626,-54.09684
2019-07-12 14:20:00+00:00,201.2848,10.78,14.48,47.84626,-54.09684
2019-07-12 14:30:00+00:00,200.4698,10.9,14.72,47.84626,-54.09684
2019-07-12 14:40:00+00:00,201.7864,11.04,14.4,47.84626,-54.09684
2019-07-12 14:50:00+00:00,206.6497,11.24,14.4,47.84626,-54.09684
2019-07-12 15:00:00+00:00,210.5998,11.44,14.24,47.84626,-54.09684
2019-07-12 15:10:00+00:00,209.0948,11.55,14.16,47.84626,-54.09684
2019-07-12 15:20:00+00:00,211.7864,11.6,14.4,47.84626,-54.09684
2019-07-12 15:30:00+00:00,217.9198,11.6,14.32,47.84626,-54.09684
2019-07-12 15:40:00+00:00,219.5748,11.6,14.4,47.84626,-54.09684
2019-07-12 15:50:00+00:00,220.8515,11.5,14.4,47.84626,-54.09684
2019-07-12 16:00:00+00:00,225.5848,11.3,14.32,47.84626,-54.09684
2019-07-12 16:10:00+00:00,229.6681,10.8,14.32,47.84626,-54.09684
2019-07-12 16:20:00+00:00,228.5115,10.69,14.32,47.84626,-54.09684
2019-07-12 16:30:00+00:00,229.6148,10.7,14.48,47.84626,-54.09684
2019-07-12 16:40:00+00:00,237.9431,10.5,14.48,47.84626,-54.09684
2019-07-12 16:50:00+00:00,246.7864,10.3,14.48,47.84626,-54.09684
2019-07-12 17:00:00+00:00,250.1097,10.2,14.32,47.84626,-54.09684
2019-07-12 17:10:00+00:00,256.7997,10.1,14.24,47.84626,-54.09684
2019-07-12 17:20:00+00:00,267.4847,10.0,14.32,47.84626,-54.09684
2019-07-12 17:30:00+00:00,275.9448,9.99,14.32,47.84626,-54.09684
2019-07-12 17:40:00+00:00,281.3615,9.9,14.24,47.84626,-54.09684
2019-07-12 17:50:00+00:00,290.4497,9.9,14.24,47.84626,-54.09684
2019-07-12 18:00:00+00:00,299.1379,9.8,14.24,47.84626,-54.09684
2019-07-12 18:10:00+00:00,303.5797,9.78,14.16,47.84626,-54.09684
2019-07-12 18:20:00+00:00,306.2364,9.8,14.24,47.84626,-54.09684
2019-07-12 18:30:00+00:00,311.0431,9.85,14.24,47.84626,-54.09684
2019-07-12 18:40:00+00:00,313.8713,9.9,14.24,47.84626,-54.09684
2019-07-12 18:50:00+00:00,317.3597,9.91,14.16,47.84626,-54.09684
2019-07-12 19:00:00+00:00,324.088,9.99,14.08,47.84626,-54.09684
2019-07-12 19:10:00+00:00,328.5096,9.96,14.0,47.84626,-54.09684
2019-07-12 19:20:00+00:00,328.0898,10.0,14.08,47.84626,-54.09684
2019-07-12 19:30:00+00:00,328.1695,10.0,14.08,47.84626,-54.09684
2019-07-12 19:40:00+00:00,330.0679,9.98,14.16,47.84626,-54.09684
2019-07-12 19:50:00+00:00,330.7595,10.0,14.08,47.84626,-54.09684
2019-07-12 20:00:00+00:00,332.2781,9.86,14.0,47.84626,-54.09684
2019-07-12 20:10:00+00:00,336.188,9.3,13.92,47.84626,-54.09684
2019-07-12 20:20:00+00:00,335.5413,9.21,13.92,47.84626,-54.09684
2019-07-12 20:30:00+00:00,334.3963,9.49,14.0,47.84626,-54.09684
2019-07-12 20:40:00+00:00,336.8197,9.6,14.0,47.84626,-54.09684
2019-07-12 20:50:00+00:00,339.5647,9.48,14.0,47.84626,-54.09684
2019-07-12 21:00:00+00:00,338.9763,9.2,13.92,47.84626,-54.09684
2019-07-12 21:10:00+00:00,337.818,9.35,13.76,47.84626,-54.09684
2019-07-12 21:20:00+00:00,337.8447,9.43,13.84,47.84626,-54.09684
2019-07-12 21:30:00+00:00,336.0347,9.4,13.84,47.84626,-54.09684
2019-07-12 21:40:00+00:00,331.5247,9.27,13.84,47.84626,-54.09684
2019-07-12 21:50:00+00:00,325.363,9.32,13.84,47.84626,-54.09684
2019-07-12 22:00:00+00:00,320.6913,9.4,13.76,47.84626,-54.09684
2019-07-12 22:10:00+00:00,318.9413,9.3,13.68,47.84626,-54.09684
2019-07-12 22:20:00+00:00,313.6464,9.16,13.68,47.84626,-54.09684
2019-07-12 22:30:00+00:00,307.2413,9.32,13.68,47.84626,-54.09684
2019-07-12 22:40:00+00:00,300.168,9.4,13.6,47.84626,-54.09684
2019-07-12 22:50:00+00:00,293.058,9.4,13.6,47.84626,-54.09684
2019-07-12 23:00:00+00:00,284.7714,9.4,13.53,47.84626,-54.09684
2019-07-12 23:10:00+00:00,276.9281,9.42,13.37,47.84626,-54.09684
2019-07-12 23:20:00+00:00,269.0081,9.53,13.29,47.84626,-54.09684
2019-07-12 23:30:00+00:00,259.1747,9.63,13.29,47.84626,-54.09684
2019-07-12 23:40:00+00:00,251.7515,9.7,13.29,47.84626,-54.09684
2019-07-12 23:50:00+00:00,246.8731,9.77,13.21,47.84626,-54.09684
